Weather History for ULMM - October, 2013

Change the Weather History Date:

Tuesday, October 22, 2013

  Actual Average Record
Temperature  
Mean Temperature 24 °F -  
Max Temperature 26 °F - - ()
Min Temperature 23 °F - - ()
Degree Days  
Heating Degree Days 40    
Moisture  
Dew Point 20 °F    
Average Humidity 79    
Maximum Humidity 86    
Minimum Humidity 68    
Precipitation  
Precipitation 0.00 in - - ()
Sea Level Pressure  
Sea Level Pressure 29.88 in    
Wind  
Wind Speed 5 mph ()    
Max Wind Speed 16 mph    
Max Gust Speed 22 mph    
Visibility 6.2 miles    
Events Snow    
T = Trace of Precipitation, MM = Missing Value Source: Averaged Metar Reports

Daily Weather History Graph

Daily Weather History Graph

Search for Another Location

Airport or City:

Trip Planner

Search our weather history database for the weather conditions in past years. The results will help you decide how hot, cold, wet, or windy it might be!

Date:

Astronomy

Oct. 22, 2013 Rise Set
Actual Time 9:24 AM MSK 5:41 PM MSK
Civil Twilight 8:22 AM MSK 6:43 PM MSK
Nautical Twilight 7:14 AM MSK 7:50 PM MSK
Astronomical Twilight 6:07 AM MSK 8:57 PM MSK
Moon 6:12 PM MSK (10/22) 2:26 PM MSK (10/22)
Length of Visible Light 10h 20m
Length of Day
8h 16m
Waning Gibbous, 89% of the Moon is Illuminated
Oct 22
Waning Gibbous
Oct 27
Last Quarter
Nov 3
New
Nov 10
First Quarter
Nov 17
Full

Hourly Weather History & Observations

Time (MSK) Temp. Windchill Dew Point Humidity Pressure Visibility Wind Dir Wind Speed Gust Speed Precip Events Conditions
12:00 AM 26.6 °F 21.3 °F 23.0 °F 86% 29.92 in - WSW 4.5 mph - N/A   Clear
12:30 AM 26.6 °F 21.3 °F 23.0 °F 86% 29.92 in - Variable 4.5 mph - N/A   Clear
1:00 AM 27 °F - 23 °F 78% 29.92 in 31 mi SSW 13.4 mph - -   Overcast
1:00 AM 26.6 °F - 23.0 °F 86% 29.92 in - Variable 2.2 mph - N/A   Clear
1:30 AM 26.6 °F 21.3 °F 23.0 °F 86% 29.89 in - Variable 4.5 mph - N/A   Clear
2:00 AM 26.6 °F 21.3 °F 21.2 °F 80% 29.89 in - Variable 4.5 mph - N/A   Clear
2:30 AM 24.8 °F 19.2 °F 21.2 °F 86% 29.89 in - Variable 4.5 mph - N/A   Clear
3:00 AM 26.6 °F - 21.2 °F 80% 29.89 in - Variable 2.2 mph - N/A   Clear
3:30 AM 24.8 °F - 21.2 °F 86% 29.89 in - Calm Calm - N/A   Clear
4:00 AM 26 °F - 21 °F 74% 29.88 in 31 mi SSW 13.4 mph - - Snow Low Drifting Snow
4:00 AM 24.8 °F - 21.2 °F 86% 29.89 in - Variable 2.2 mph - N/A   Clear
4:30 AM 26.6 °F 21.3 °F 21.2 °F 80% 29.86 in - WSW 4.5 mph - N/A   Clear
5:00 AM 26.6 °F - 21.2 °F 80% 29.86 in - Calm Calm - N/A   Clear
5:30 AM 24.8 °F - 19.4 °F 80% 29.86 in - Variable 2.2 mph - N/A   Clear
6:00 AM 24.8 °F 19.2 °F 19.4 °F 80% 29.86 in - Variable 4.5 mph - N/A   Clear
6:30 AM 24.8 °F - 19.4 °F 80% 29.86 in - Variable 2.2 mph - N/A   Clear
7:00 AM 25 °F - 20 °F 73% 29.86 in 31 mi SSW 15.7 mph - - Snow Low Drifting Snow
7:00 AM 24.8 °F - 19.4 °F 80% 29.86 in - Variable 2.2 mph - N/A   Clear
7:30 AM 24.8 °F 17.1 °F 19.4 °F 80% 29.86 in - WSW 6.7 mph - N/A   Clear
8:00 AM 24.8 °F 17.1 °F 19.4 °F 80% 29.86 in - WSW 6.7 mph - N/A   Clear
8:30 AM 24.8 °F 15.5 °F 19.4 °F 80% 29.86 in - WSW 8.9 mph 22.4 mph N/A   Clear
9:00 AM 24.8 °F 15.5 °F 19.4 °F 80% 29.86 in - WSW 8.9 mph - N/A   Clear
9:30 AM 23.0 °F 14.9 °F 19.4 °F 86% 29.86 in - SW 6.7 mph - N/A   Clear
10:00 AM 24 °F - 18 °F 70% 29.87 in 31 mi South 11.2 mph - -   Partly Cloudy
10:00 AM 23.0 °F - 19.4 °F 86% 29.86 in - Variable 2.2 mph - N/A   Clear
10:30 AM 23.0 °F 14.9 °F 17.6 °F 80% 29.86 in - WSW 6.7 mph - N/A   Clear
11:00 AM 24.8 °F 17.1 °F 19.4 °F 80% 29.86 in - WSW 6.7 mph - N/A   Clear
11:30 AM 24.8 °F 15.5 °F 19.4 °F 80% 29.86 in - WSW 8.9 mph - N/A   Clear
12:00 PM 24.8 °F 19.2 °F 19.4 °F 80% 29.86 in - SW 4.5 mph - N/A   Clear
12:30 PM 26.6 °F 21.3 °F 19.4 °F 74% 29.86 in - WSW 4.5 mph - N/A   Clear
1:00 PM 25 °F - 19 °F 68% 29.89 in 31 mi SSW 15.7 mph - -   Partly Cloudy
1:00 PM 26.6 °F 21.3 °F 19.4 °F 74% 29.86 in - Variable 4.5 mph - N/A   Clear
1:30 PM 26.6 °F - 19.4 °F 74% 29.89 in - Variable 2.2 mph - N/A   Clear
2:00 PM 24.8 °F 19.2 °F 19.4 °F 80% 29.89 in - SW 4.5 mph - N/A   Clear
2:30 PM 26.6 °F 21.3 °F 19.4 °F 74% 29.89 in - Variable 4.5 mph - N/A   Clear
3:00 PM 26.6 °F 21.3 °F 19.4 °F 74% 29.89 in - Variable 4.5 mph - N/A   Clear
3:30 PM 26.6 °F 21.3 °F 19.4 °F 74% 29.89 in - SW 4.5 mph - N/A   Clear
4:00 PM 26 °F - 20 °F 70% 29.89 in 31 mi SW 15.7 mph - -   Partly Cloudy
4:00 PM 26.6 °F 19.2 °F 19.4 °F 74% 29.89 in - WSW 6.7 mph - N/A   Clear
4:30 PM 26.6 °F 19.2 °F 19.4 °F 74% 29.89 in - SW 6.7 mph - N/A   Clear
5:00 PM 24.8 °F 19.2 °F 19.4 °F 80% 29.89 in - SW 4.5 mph - N/A   Clear
5:30 PM 24.8 °F 19.2 °F 17.6 °F 74% 29.89 in - SW 4.5 mph - N/A   Clear
6:00 PM 24.8 °F 19.2 °F 19.4 °F 80% 29.86 in - Variable 4.5 mph - N/A   Clear
6:30 PM 24.8 °F 15.5 °F 19.4 °F 80% 29.86 in - WSW 8.9 mph - N/A   Clear
7:00 PM 24.8 °F 17.1 °F 19.4 °F 80% 29.86 in - WSW 6.7 mph - N/A   Clear
7:30 PM 24.8 °F 15.5 °F 19.4 °F 80% 29.86 in - WSW 8.9 mph 20.1 mph N/A   Clear
8:00 PM 24.8 °F 15.5 °F 19.4 °F 80% 29.86 in - WSW 8.9 mph - N/A   Clear
8:30 PM 24.8 °F 17.1 °F 19.4 °F 80% 29.86 in - WSW 6.7 mph - N/A   Clear
9:00 PM 24.8 °F 19.2 °F 19.4 °F 80% 29.89 in - Variable 4.5 mph - N/A   Clear
9:30 PM 24.8 °F - 19.4 °F 80% 29.89 in - Calm Calm - N/A   Clear
10:00 PM 25 °F - 19 °F 71% 29.91 in 31 mi SSW 6.7 mph - -   Partly Cloudy
10:00 PM 23.0 °F - 17.6 °F 80% 29.89 in - Variable 2.2 mph - N/A   Clear
10:30 PM 24.8 °F - 19.4 °F 80% 29.89 in 6.2 mi Variable 2.2 mph - N/A   Scattered Clouds
11:00 PM 24.8 °F - 19.4 °F 80% 29.89 in 6.2 mi Calm Calm - N/A   Mostly Cloudy
11:30 PM 24.8 °F - 21.2 °F 86% 29.89 in 6.2 mi Variable 2.2 mph - N/A   Mostly Cloudy